Tracking 20623 objects as of 3-Apr-2020
HD Live streaming from Space Station
objects crossing your sky now

STARLINK-1074

Track STARLINK-1074 now!
10-day predictions
STARLINK-1074 is classified as:


NORAD ID: 44957
Int'l Code: 2020-001AV
Perigee: 381.7 km
Apogee: 392.1 km
Inclination: 53.0 °
Period: 92.1 minutes
Semi major axis: 6757 km
RCS: Unknown
Launch date: January 7, 2020
Source: United States (US)
Launch site: AIR FORCE EASTERN TEST RANGE (AFETR)
aabbcc
Your satellite tracking list
Your tracking list is empty




NASA's NSSDC Master Catalog

Two Line Element Set (TLE):
1 44957U 20001AV  20093.91667824 -.00018252  00000-0 -19364-3 0  9995
2 44957  53.0006 326.4350 0007721 325.8672 198.3996 15.62740486 13662
Source of the keplerian elements: AFSPC